Location: ???????
(55.3754°N, 39.3545°E)
Time: 08:29:22
(UTC+00:00)

NOSS 2-1 (E) - Pass Details

Date: 14 April 2026
Orbit: 385 x 1749 km, 63.3° (Epoch: 7 May)

Event Time Altitude Azimuth Distance (km) Brightness Sun altitude
Rises 18:58:27 0° 306° (NW) 2,315 7.9 -18.4°
Reaches altitude 10° 19:00:22 10° 299° (WNW) 1,505 6.6 -18.5°
Maximum altitude 19:03:28 44° 226° (SW) 657 3.6 -18.8°
Enters shadow 19:03:59 41° 200° (SSW) 707 3.6 -18.8°
